User: anonymous   Login
Location: Plymouth
(43.7570°N, 71.6890°W)
Time: 11:41:17
(UTC-04:00)
Language:

COSMOS 2406 - Orbit

View from above orbital plane
View from above orbital plane
View from above satellite
View from above satellite

Ground track
Ground track

The orbit data is extracted from the following two-line orbital elements,

1 28352U 04021A   18145.43736664 -.00000025 +00000-0 +12454-4 0  9993
2 28352 071.0043 130.0625 0017160 299.4381 060.5027 14.11658156719101
Epoch (UTC): 25 May 2018 10:29:48
Eccentricity: 0.0017160
inclination: 71.0043°
perigee height: 841 km
apogee height: 866 km
right ascension of ascending node: 130.0625°
argument of perigee: 299.4381°
revolutions per day: 14.11658156
mean anomaly at epoch: 60.5027°
orbit number at epoch: 71910

The dashed part of the orbit path shows where the satellite is in the earth's shadow,  

DLR